{"data":{"norad_id":66983,"intl_designator":"2025-288AA","name":"STARLINK-36145","alt_names":[],"object_type":"PAYLOAD","status":"ACTIVE","operator":null,"country":"US","launch_date":"2025-12-08","launch_site_code":"AFETR","launch_vehicle":null,"mission":null,"orbit_class":"UNKNOWN","rcs_meters":null,"size_class":null,"mass_kg":null,"dimensions":null,"purposes":["comms"],"wikipedia_slug":null,"has_3d_model":false,"image_url":null,"decayed_at":null,"tle_current":{"epoch":"2026-05-25T04:16:24.943008Z","epoch_age_seconds":49913,"freshness":"FRESH","line1":"1 66983U 25288AA  26145.17806647  .00012999  00000+0  48089-3 0  9995","line2":"2 66983  42.9997 311.6295 0000507 322.0454  38.0362 15.27591856 26989","mean_motion":15.27591856,"eccentricity":5.07e-5,"inclination_deg":42.9997,"raan_deg":311.6295,"arg_perigee_deg":322.0454,"mean_anomaly_deg":38.0362,"bstar":0.00048089,"rev_number":2698,"period_min":94.266017087224,"perigee_km":482.66573480492,"apogee_km":483.36145547526,"semimajor_km":6861.1505951401,"source":"CELESTRAK","updated_at":"2026-05-25T13:38:21.427982Z"}}}